Flag for Namibia Weather past 2 weeks in Windhoek, Namibia

Now
66 °F

Sunny.


Feels Like: 66 °F
Forecast: 43 / 73 °F
Wind: 3 mph from Northwest

Location: Windhoek

Current Time: Jul 3, 2015 at 11:49:39 AM

Latest Report: Jul 3, 2015 at 11:00 AM


Visibility: 10 mi

Pressure: 30.39 "Hg

Humidity: 28%

Dew point: 32 °F

Location of WindhoekLocation

Historic Weather in Windhoek — Graph

°F

Windhoek temperature yesterday

Maximum temperature yesterday: 75 °F (at 3:00 PM)
Minimum temperature yesterday: 48 °F (at 6:00 AM)
Average temperature yesterday: 60 °F

Past Weeks' High & Low Weather Summary

 TemperatureHumidityPressure
High81 °F (Jun 25, 11:00 AM)81% (Jun 26, 7:00 AM)30.45 "Hg (Jun 26, 7:00 AM)
Low34 °F (Jun 27, 4:00 AM)4% (Jun 28, 2:00 PM)30.15 "Hg (Jun 26, 1:00 PM)
Average56 °F27%30.32 "Hg
* Reported Jun 18 11:00 AM — Jul 3 11:00 AM, Windhoek, Weather by CustomWeather, © 2015

Note: Actual official high and low records may vary slightly from our data, if they occured in-between our weather recording intervals... More about our weather records

Advertising

Windhoek weather history for previous 24 hours

 ConditionsComfort  
Time TempWeatherWind HumidityBarometerVisibility
11:00 AM
Fri, Jul 3
66 °FSunny.3 mph28%30.39 "Hg10 mi
10:00 AM64 °FSunny.3 mph30%30.42 "Hg10 mi
9:00 AM63 °FSunny.3 mph32%30.42 "Hg10 mi
8:00 AM52 °FSunny.7 mph47%30.39 "Hg10 mi
7:00 AM46 °FSunny.9 mph57%30.39 "Hg10 mi
6:00 AM46 °FSunny.9 mph57%30.36 "Hg10 mi
5:00 AM46 °FCool.9 mph53%30.36 "HgN/A
4:00 AM48 °FCool.9 mph50%30.36 "HgN/A
3:00 AM48 °FCool.9 mph46%30.36 "HgN/A
2:00 AM48 °FCool.9 mph43%30.39 "HgN/A
1:00 AM50 °FCool.9 mph40%30.39 "HgN/A
12:00 AM52 °FCool.10 mph35%30.36 "HgN/A
11:00 PM
Thu, Jul 2
52 °FCool.8 mph35%30.39 "HgN/A
10:00 PM54 °FCool.9 mph33%30.39 "HgN/A
9:00 PM55 °FRefreshingly cool.8 mph31%30.36 "HgN/A
8:00 PM55 °FRefreshingly cool.7 mph31%30.36 "HgN/A
7:00 PM59 °FClear.6 mph29%30.33 "Hg10 mi
6:00 PM66 °FClear.No wind22%30.33 "Hg10 mi
5:00 PM70 °FClear.5 mph20%30.30 "Hg10 mi
4:00 PM73 °FSunny.5 mph17%30.30 "Hg10 mi
3:00 PM75 °FSunny.3 mph16%30.30 "Hg10 mi
2:00 PM73 °FSunny.3 mph19%30.30 "Hg10 mi
1:00 PM72 °FSunny.No wind22%30.33 "Hg10 mi
12:00 PM70 °FSunny.6 mph23%30.36 "Hg10 mi
11:00 AM66 °FSunny.5 mph28%30.39 "Hg10 mi
Weather by CustomWeather, © 2015

See weather overviewHow to use our weather pages